Location: Le Gr�zie
(43.6000°N, 13.5000°E)
Time: 21:25:59
(UTC+00:00)

FREGAT/IRIS - Pass Details

Date: 09 April 2020
Orbit: 327 x 333 km, 96.9° (Epoch: 26 May)

Event Time Altitude Azimuth Distance (km) Brightness Sun altitude
Exits shadow 19:02:34 - 189° (S) 1,666 5.6 -14.5°
Reaches altitude 10° 19:03:30 10° 196° (SSW) 1,284 5.1 -14.6°
Maximum altitude 19:06:00 32° 262° (W) 616 4.1 -15.0°
Drops below altitude 10° 19:08:33 10° 329° (NNW) 1,302 6.1 -15.4°
Sets 19:10:35 0° 340° (NNW) 2,150 7.1 -15.8°
